User: anonymous   Login
Location: Unnamed
(48.6007°N, 2.4808°E)
Time: 09:36:14
(UTC+02:00)
Language:

NOAA 19 - Orbit

View from above orbital plane
View from above orbital plane
View from above satellite
View from above satellite

Ground track
Ground track

The orbit data is extracted from the following two-line orbital elements,

1 33591U 09005A   24106.84620954  .00000354  00000-0  21402-3 0  9990
2 33591  99.0532 161.9714 0014884 107.7720 252.5077 14.12968390782827
Epoch (UTC): 15 April 2024 20:18:32
Eccentricity: 0.0014884
inclination: 99.0532°
perigee height: 838 km
apogee height: 860 km
right ascension of ascending node: 161.9714°
argument of perigee: 107.7720°
revolutions per day: 14.12968390
mean anomaly at epoch: 252.5077°
orbit number at epoch: 78282

The dashed part of the orbit path shows where the satellite is in the earth's shadow,  

DLR